Weather in Wurzburg

Germany     49°47′42″N   9°56′08″E
temp.,
°C
wind,
m/s
gust,
m/s
humid.,
%
clouds,
%
prec.,
mm/h
press.,
hPa
HPBL,
m
28 january, fri
fri2801:00+3w81587100 0.3 1027706
04:00+3wnw71374100 0.2 1028658
07:00+2w6128498 0.3 1031545
10:00+3w6118225 0.2 10321003
13:00+5wnw71067100 0.3 10331357
16:00+4wnw61069100 0.1 1034799
19:00+2wsw3683100 0.1 1035149
22:00+1sw3790100 0.0 1036174
29 january, sat
sat2901:00+2sw5118894 0.0 1034353
04:00+2sw51389100 0.0 1032436
07:00+1wsw6158893 0.0 1030563
10:00+2wsw81687100 0.0 1029600
13:00+4wsw81785100 0.0 1027636
16:00+4wsw91889100 0.0 1025717
19:00+5wsw101891100 0.0 1024979
22:00+6wsw91791100 0.6 1024904
30 january, sun
sun3001:00+7wnw9168049 1.0 10241185
04:00+4wnw81475100 0.0 10261033
07:00+3wnw81377100 0.0 1027867
10:00+4w8136428 0.0 10281176
13:00+5wnw913645 0.0 10281133
16:00+5w610635 0.0 1028936
19:00+1w38791 0.0 1028179
22:000wsw22816 0.0 102628
31 january, mon
mon3101:000sw2481100 0.0 102185
04:00+1ssw51084100 0.0 1016357
07:000sw71593100 0.1 1012722
10:00+1wsw91796100 1.9 1010918
13:00+2wsw112094100 2.3 10071344
16:00+2w112097100 3.1 10071405
19:00+2wnw71397100 5.8 1010883
22:00+2w61198100 0.1 1012708
1 february, tue
tue101:00+1nw91494100 0.8 1014917
04:00+1wnw71285100 0.1 1019947
07:00+1wnw71288100 0.2 1020750
10:00+1w71187100 0.0 1021899
13:00+3wsw81282100 0.1 10191172
16:00+1sw91796100 0.5 1016954
19:00+1wsw112097100 3.4 1012916
22:00+3wsw101897100 0.9 1010920